| time (UTC) | temp C | wind direction | speed KPH | gust KPH | rain 1hr cm | rain 24hr cm | rain mn cm | humidity % | barometer mb |
| 20260506103025 | 8 | 311 | 0.0 | 0.0 | 0.00 | 0.03 | 0.00 | 56 | 1004.7 |
| 20260506101522 | 8 | 286 | 0.0 | 0.0 | 0.00 | 0.03 | 0.00 | 54 | 1004.5 |
| 20260506100020 | 8 | 296 | 0.0 | 0.0 | 0.00 | 0.03 | 0.00 | 54 | 1004.3 |
| 20260506094519 | 9 | 242 | 0.0 | 0.0 | 0.00 | 0.03 | 0.00 | 53 | 1004.3 |
| 20260506093032 | 8 | 269 | 0.0 | 0.0 | 0.00 | 0.03 | 0.00 | 54 | 1004.2 |
| 20260506091516 | 8 | 273 | 0.0 | 0.0 | 0.00 | 0.03 | 0.00 | 53 | 1004.0 |
| 20260506090013 | 9 | 286 | 0.0 | 0.0 | 0.00 | 0.03 | 0.00 | 52 | 1003.8 |
| 20260506084515 | 8 | 311 | 0.0 | 0.0 | 0.00 | 0.03 | 0.00 | 52 | 1003.8 |
| 20260506083012 | 8 | 294 | 0.0 | 0.0 | 0.00 | 0.03 | 0.00 | 52 | 1003.9 |
| 20260506081510 | 8 | 281 | 0.0 | 0.0 | 0.00 | 0.03 | 0.00 | 53 | 1004.0 |
| 20260506073009 | 10 | 242 | 0.0 | 1.6 | 0.00 | 0.03 | 0.00 | 48 | 1003.9 |
| 20260506071506 | 10 | 232 | 0.0 | 1.6 | 0.00 | 0.03 | 0.00 | 48 | 1003.8 |
| 20260506061604 | 8 | 218 | 0.0 | 0.0 | 0.00 | 0.03 | 0.00 | 56 | 1003.4 |
| 20260506044541 | 12 | 205 | 0.0 | 11.3 | 0.00 | 0.03 | 0.03 | 44 | 1003.2 |
| 20260506043043 | 12 | 207 | 0.0 | 8.0 | 0.00 | 0.03 | 0.03 | 45 | 1002.9 |
| 20260506041547 | 11 | 303 | 0.0 | 0.0 | 0.00 | 0.03 | 0.03 | 49 | 1002.6 |
| 20260506040011 | 12 | 269 | 0.0 | 11.3 | 0.00 | 0.03 | 0.03 | 48 | 1002.5 |
| 20260506034510 | 11 | 235 | 0.0 | 0.0 | 0.00 | 0.03 | 0.03 | 50 | 1002.3 |
| 20260506033007 | 11 | 227 | 0.0 | 0.0 | 0.00 | 0.03 | 0.03 | 53 | 1001.9 |
| 20260506031508 | 10 | 251 | 0.0 | 0.0 | 0.00 | 0.03 | 0.03 | 56 | 1001.8 |
| 20260506030007 | 11 | 253 | 0.0 | 0.0 | 0.00 | 0.03 | 0.03 | 52 | 1001.6 |
| 20260506024507 | 11 | 314 | 0.0 | 0.0 | 0.00 | 0.03 | 0.03 | 54 | 1001.4 |
| 20260506023005 | 12 | 323 | 0.0 | 0.0 | 0.00 | 0.03 | 0.03 | 51 | 1001.2 |
| 20260506021504 | 12 | 328 | 0.0 | 14.5 | 0.00 | 0.03 | 0.03 | 50 | 1000.9 |
| 20260506020003 | 12 | 246 | 0.0 | 0.0 | 0.00 | 0.03 | 0.03 | 49 | 1000.9 |
| 20260506014507 | 12 | 266 | 0.0 | 1.6 | 0.00 | 0.03 | 0.03 | 51 | 1000.7 |
| 20260506013034 | 12 | 292 | 0.0 | 1.6 | 0.00 | 0.03 | 0.03 | 51 | 1000.6 |
| 20260506011534 | 13 | 257 | 0.0 | 0.0 | 0.00 | 0.03 | 0.03 | 50 | 1000.6 |
| 20260506010031 | 13 | 246 | 0.0 | 1.6 | 0.00 | 0.03 | 0.03 | 50 | 1000.5 |
| 20260506004529 | 13 | 222 | 0.0 | 16.1 | 0.00 | 0.03 | 0.03 | 48 | 1000.6 |
| 20260506003029 | 13 | 219 | 0.0 | 14.5 | 0.00 | 0.03 | 0.03 | 47 | 1000.5 |
| 20260506001528 | 13 | 246 | 1.6 | 11.3 | 0.00 | 0.03 | 0.03 | 47 | 1000.5 |
| 20260506000042 | 13 | 312 | 1.6 | 19.3 | 0.00 | 0.03 | 0.03 | 48 | 1000.6 |
| 20260505234526 | 14 | 255 | 1.6 | 14.5 | 0.00 | 0.03 | 0.03 | 47 | 1000.5 |
| 20260505233027 | 13 | 228 | 0.0 | 16.1 | 0.00 | 0.03 | 0.03 | 48 | 1000.5 |
| 20260505231529 | 13 | 309 | 0.0 | 19.3 | 0.00 | 0.03 | 0.03 | 49 | 1000.6 |
| 20260505230053 | 13 | 216 | 0.0 | 14.5 | 0.00 | 0.03 | 0.03 | 52 | 1000.7 |
| 20260505224554 | 13 | 252 | 0.0 | 14.5 | 0.00 | 0.03 | 0.03 | 53 | 1000.9 |
| 20260505223050 | 13 | 252 | 1.6 | 16.1 | 0.00 | 0.03 | 0.03 | 53 | 1000.9 |
| 20260505221557 | 13 | 276 | 1.6 | 17.7 | 0.00 | 0.03 | 0.03 | 57 | 1001.3 |
| 20260505220104 | 12 | 265 | 0.0 | 17.7 | 0.00 | 0.03 | 0.03 | 57 | 1001.3 |
| 20260505214556 | 13 | 272 | 1.6 | 12.9 | 0.00 | 0.03 | 0.03 | 57 | 1001.3 |
| 20260505213046 | 12 | 284 | 3.2 | 19.3 | 0.00 | 0.03 | 0.03 | 57 | 1001.5 |
| 20260505211614 | 12 | 211 | 0.0 | 16.1 | 0.00 | 0.03 | 0.03 | 60 | 1001.7 |
| 20260505210047 | 10 | 249 | 0.0 | 6.4 | 0.00 | 0.03 | 0.03 | 65 | 1002.0 |
| 20260505204557 | 10 | 292 | 1.6 | 17.7 | 0.00 | 0.03 | 0.03 | 65 | 1002.3 |
| 20260505203044 | 10 | 296 | 0.0 | 24.1 | 0.00 | 0.03 | 0.03 | 64 | 1002.1 |
| 20260505201543 | 10 | 254 | 1.6 | 16.1 | 0.03 | 0.03 | 0.03 | 66 | 1002.3 |
| 20260505200044 | 10 | 254 | 3.2 | 20.9 | 0.03 | 0.03 | 0.03 | 70 | 1001.9 |
| 20260505194541 | 9 | 286 | 0.0 | 14.5 | 0.03 | 0.03 | 0.03 | 77 | 1001.9 |
| 20260505193037 | 9 | 229 | 0.0 | 17.7 | 0.03 | 0.03 | 0.03 | 76 | 1002.5 |
| 20260505191535 | 11 | 288 | 1.6 | 14.5 | 0.00 | 0.00 | 0.00 | 63 | 1002.1 |
| 20260505190029 | 12 | 236 | 0.0 | 14.5 | 0.00 | 0.00 | 0.00 | 52 | 1001.9 |
| 20260505184538 | 12 | 297 | 1.6 | 14.5 | 0.00 | 0.00 | 0.00 | 49 | 1001.9 |
| 20260505183026 | 12 | 264 | 0.0 | 11.3 | 0.00 | 0.00 | 0.00 | 48 | 1001.7 |
| 20260505181527 | 12 | 224 | 3.2 | 22.5 | 0.00 | 0.00 | 0.00 | 47 | 1001.9 |
| 20260505180025 | 13 | 247 | 0.0 | 16.1 | 0.00 | 0.00 | 0.00 | 43 | 1001.9 |
| 20260505174535 | 14 | 231 | 3.2 | 24.1 | 0.00 | 0.00 | 0.00 | 40 | 1001.6 |
| 20260505173023 | 13 | 229 | 6.4 | 24.1 | 0.00 | 0.00 | 0.00 | 38 | 1001.9 |
| 20260505171531 | 12 | 282 | 0.0 | 16.1 | 0.00 | 0.00 | 0.00 | 44 | 1001.7 |
| 20260505170019 | 12 | 219 | 1.6 | 9.7 | 0.00 | 0.00 | 0.00 | 43 | 1002.0 |
| 20260505164520 | 13 | 207 | 0.0 | 16.1 | 0.00 | 0.00 | 0.00 | 44 | 1001.6 |
| 20260505163118 | 13 | 260 | 1.6 | 16.1 | 0.00 | 0.00 | 0.00 | 43 | 1001.4 |
| 20260505161550 | 12 | 215 | 3.2 | 14.5 | 0.00 | 0.00 | 0.00 | 45 | 1001.6 |
| 20260505153032 | 12 | 234 | 0.0 | 11.3 | 0.00 | 0.00 | 0.00 | 47 | 1001.4 |
| 20260505151544 | 12 | 296 | 0.0 | 11.3 | 0.00 | 0.00 | 0.00 | 50 | 1001.4 |
| 20260505140110 | 11 | 316 | 0.0 | 12.9 | 0.00 | 0.00 | 0.00 | 50 | 1001.9 |
| 20260505124524 | 11 | 290 | 0.0 | 6.4 | 0.00 | 0.00 | 0.00 | 46 | 1001.1 |
| 20260505123027 | 11 | 300 | 0.0 | 6.4 | 0.00 | 0.00 | 0.00 | 44 | 1000.9 |
| 20260505121522 | 11 | 288 | 0.0 | 12.9 | 0.00 | 0.00 | 0.00 | 45 | 1000.8 |
| 20260505120020 | 11 | 298 | 0.0 | 1.6 | 0.00 | 0.00 | 0.00 | 46 | 1000.7 |
| 20260505114514 | 11 | 297 | 0.0 | 6.4 | 0.00 | 0.00 | 0.00 | 46 | 1000.8 |
| 20260505113015 | 12 | 234 | 0.0 | 3.2 | 0.00 | 0.00 | 0.00 | 45 | 1000.8 |
| 20260505111511 | 12 | 317 | 0.0 | 8.0 | 0.00 | 0.00 | 0.00 | 44 | 1000.8 |